Location: Ostrava
(49.8330°N, 18.2830°E)
Time: 04:18:42
(UTC+02:00)

NOAA 19 - Visible Passes

Search period start: 01 May 2016 00:00
Search period end: 11 May 2016 00:00
Orbit: 842 x 862 km, 99.0° (Epoch: 30 April)

Date Brightness Start Highest point End Pass type
(mag) Time Alt. Az. Time Alt. Az. Time Alt. Az.
01 May 5.9 03:27:02 10° NNE 03:32:28 51° E 03:37:51 10° S visible
02 May 6.3 03:15:46 10° NNE 03:21:02 42° E 03:26:16 10° SSE visible
03 May 6.6 03:04:32 10° NNE 03:09:35 34° E 03:14:36 10° SSE visible
04 May 6.9 02:53:22 10° NE 02:58:07 28° E 03:02:51 10° SSE visible
04 May 5.6 04:33:42 10° N 04:39:06 53° WNW 04:44:29 10° SW visible
05 May 7.2 02:42:15 10° NE 02:46:38 23° E 02:50:58 10° SE visible
05 May 5.4 04:22:16 10° N 04:27:46 64° WNW 04:33:16 10° SSW visible
06 May 7.4 02:31:14 10° NE 02:35:07 19° E 02:38:58 10° SE visible
06 May 5.3 04:10:51 10° NNE 04:16:26 77° WNW 04:21:59 10° SSW visible
07 May 7.6 02:20:22 10° NE 02:23:35 15° E 02:26:47 10° ESE visible
07 May 5.3 03:59:28 10° NNE 04:05:04 88° ESE 04:10:39 10° SSW visible
08 May 7.7 02:09:49 10° ENE 02:12:02 12° E 02:14:14 10° ESE visible
08 May 5.5 03:48:06 10° NNE 03:53:42 73° ESE 03:59:15 10° S visible
09 May 5.7 03:36:47 10° NNE 03:42:18 60° ESE 03:47:48 10° S visible
10 May 6.0 03:25:29 10° NNE 03:30:53 49° E 03:36:16 10° S visible
